星链-6316 (STARLINK-6316 )

导读 | 星芒AI

STARLINK-6316 是 SpaceX 星链计划中的一颗低轨通信卫星,属于第六批星链卫星(Group 6-31)。它于2023年发射,部署在约550公里高度的近地轨道,旨在为全球用户提供高速互联网服务。该卫星采用先进的星间激光通信技术,提升了网络传输效率和覆盖范围。作为星链星座的一部分,STARLINK-6316 支持偏远地区的宽带接入,助力实现全球互联网覆盖目标。

基本信息
目录编号:
57335
目录名称:
STARLINK-6316
国际标识:
2023-099H
轨道中心:
EARTH
卫星名称:
星链-6316
卫星全名:
星链-6316 (STARLINK-6316 )
卫星状态:
在轨 (已飞行889 天)
发射日期:
2023-07-16 UTC
国别 :
美国 (US)
星等 :
--
轨道信息
数据来源 国际轨道数据 AOE轨道数据
星历时间 2025-12-21T13:27:57+0800
14小时前
查看轨道信息
2025-12-21T20:00:00+0800
7小时前
查看轨道信息
半长轴 6937.221km 6937.234km
偏心率 0.0001191 0.0001157
轨道倾角 43.005° 43.003°
近地点辐角 268.050° 246.283°
升交点赤经 315.337° 313.861°
平近点角 92.021° 148.161°
近地点 558.257km 558.294km
远地点 559.911km 559.9km
周期 95.838分钟 95.838分钟
每日圈数 15.025346 15.025306
详细信息
固有亮度:
5
最大亮度:
2.5
卫星平台:
Starlink v1.5
覆盖范围:
全球
运营商:
太空探索技术公司
运营商所在国:
美国
制造商(研发单位):
太空探索技术公司
制造商所在国:
美国
使用方式:
暂无
卫星简介
星链(Starlink)计划是由太空探索技术公司(SpaceX)提出的一个巨型低轨卫星互联网星座项目,计划在2019年至2024年间在太空搭建由约1.2万颗卫星组成的“星链”网络,其中1584颗将部署在地球上空550千米处的近地轨道,并从2020年开始工作。该卫星仍在工作。
2D轨道图
3D轨道图
轨道高度分析图
轨道倾角分析图
轨道综合分析图
查看轨道综合分析图